TimeEDT,TemperatureF,Dew PointF,Humidity,Sea Level PressureIn,VisibilityMPH,Wind Direction,Wind SpeedMPH,Gust SpeedMPH,PrecipitationIn,Events,Conditions,WindDirDegrees,DateUTC
12:51 AM,48.9,41.0,74,29.33,10.0,WSW,19.6,35.7,N/A,,Overcast,250,2012-10-30 04:51:00
1:51 AM,48.9,41.0,74,29.34,10.0,WSW,21.9,36.8,N/A,,Overcast,250,2012-10-30 05:51:00
2:51 AM,48.9,39.9,71,29.35,10.0,WSW,23.0,34.5,N/A,,Overcast,250,2012-10-30 06:51:00
3:26 AM,48.2,39.2,71,29.35,10.0,WSW,23.0,34.5,N/A,,Overcast,250,2012-10-30 07:26:00
3:46 AM,50.0,39.2,66,29.36,10.0,West,19.6,33.4,N/A,,Overcast,260,2012-10-30 07:46:00
3:51 AM,48.9,39.0,69,29.36,10.0,WSW,24.2,33.4,N/A,,Overcast,250,2012-10-30 07:51:00
4:51 AM,48.9,37.9,66,29.37,10.0,West,20.7,32.2,N/A,,Overcast,260,2012-10-30 08:51:00
5:51 AM,48.0,37.9,68,29.39,10.0,West,20.7,31.1,N/A,,Mostly Cloudy,260,2012-10-30 09:51:00
6:51 AM,48.9,37.0,64,29.41,10.0,West,17.3,28.8,N/A,,Scattered Clouds,260,2012-10-30 10:51:00
7:51 AM,48.9,37.0,64,29.44,10.0,West,17.3,27.6,N/A,,Mostly Cloudy,260,2012-10-30 11:51:00
8:51 AM,48.9,36.0,61,29.47,10.0,West,16.1,27.6,N/A,,Partly Cloudy,260,2012-10-30 12:51:00
10:51 AM,53.1,39.0,59,29.48,10.0,West,15.0,24.2,N/A,,Clear,260,2012-10-30 14:51:00
11:51 AM,55.0,39.9,57,29.48,10.0,WSW,16.1,25.3,N/A,,Clear,250,2012-10-30 15:51:00
12:51 PM,55.9,42.1,60,29.47,10.0,WSW,17.3,29.9,N/A,,Partly Cloudy,250,2012-10-30 16:51:00
1:51 PM,57.0,41.0,55,29.46,10.0,WSW,18.4,28.8,N/A,,Partly Cloudy,240,2012-10-30 17:51:00
2:51 PM,57.0,42.1,57,29.46,10.0,WSW,18.4,29.9,N/A,,Partly Cloudy,240,2012-10-30 18:51:00
3:51 PM,57.9,42.1,56,29.47,10.0,WSW,19.6,31.1,N/A,,Scattered Clouds,250,2012-10-30 19:51:00
4:51 PM,54.0,39.9,59,29.48,10.0,West,13.8,25.3,N/A,,Mostly Cloudy,260,2012-10-30 20:51:00
5:51 PM,52.0,41.0,66,29.52,10.0,West,11.5,19.6,N/A,,Scattered Clouds,280,2012-10-30 21:51:00
6:51 PM,53.1,39.0,59,29.55,10.0,WNW,12.7,24.2,N/A,,Mostly Cloudy,290,2012-10-30 22:51:00
7:51 PM,53.1,39.9,61,29.57,10.0,West,12.7,21.9,N/A,,Mostly Cloudy,270,2012-10-30 23:51:00
8:51 PM,53.1,39.0,59,29.59,10.0,West,16.1,28.8,N/A,,Mostly Cloudy,280,2012-10-31 00:51:00
9:51 PM,52.0,39.9,63,29.61,10.0,WNW,11.5,18.4,N/A,,Clear,290,2012-10-31 01:51:00
10:51 PM,52.0,39.0,61,29.62,10.0,West,6.9,18.4,N/A,,Clear,270,2012-10-31 02:51:00
11:51 PM,52.0,37.9,59,29.62,10.0,West,13.8,20.7,N/A,,Scattered Clouds,260,2012-10-31 03:51:00